| time (UTC) | temp F | wind direction | speed MPH | gust MPH | rain 1hr in | rain 24hr in | rain mn in | humidity % | barometer mb |
| 20260502223105 | 61 | 253 | 4.0 | 9.0 | 0.00 | 0.00 | 0.00 | 76 | 1012.3 |
| 20260502221601 | 60 | 239 | 5.0 | 12.0 | 0.00 | 0.00 | 0.00 | 78 | 1012.5 |
| 20260502220104 | 60 | 302 | 5.0 | 10.0 | 0.00 | 0.00 | 0.00 | 78 | 1012.7 |
| 20260502214615 | 60 | 243 | 4.0 | 9.0 | 0.00 | 0.00 | 0.00 | 78 | 1012.8 |
| 20260502213119 | 60 | 190 | 4.0 | 9.0 | 0.00 | 0.00 | 0.00 | 78 | 1012.8 |
| 20260502211556 | 60 | 223 | 3.0 | 11.0 | 0.00 | 0.00 | 0.00 | 78 | 1012.9 |
| 20260502210052 | 59 | 213 | 5.0 | 12.0 | 0.00 | 0.00 | 0.00 | 80 | 1013.1 |
| 20260502204556 | 60 | 250 | 4.0 | 10.0 | 0.00 | 0.00 | 0.00 | 79 | 1013.1 |
| 20260502203111 | 60 | 243 | 2.0 | 7.0 | 0.00 | 0.00 | 0.00 | 79 | 1013.2 |
| 20260502201554 | 60 | 242 | 2.0 | 9.0 | 0.00 | 0.00 | 0.00 | 79 | 1013.2 |
| 20260502200057 | 60 | 223 | 2.0 | 8.0 | 0.00 | 0.00 | 0.00 | 79 | 1013.3 |
| 20260502194555 | 59 | 255 | 3.0 | 7.0 | 0.00 | 0.00 | 0.00 | 79 | 1013.4 |
| 20260502193055 | 59 | 231 | 3.0 | 9.0 | 0.00 | 0.00 | 0.00 | 79 | 1013.6 |
| 20260502191604 | 59 | 295 | 2.0 | 7.0 | 0.00 | 0.00 | 0.00 | 79 | 1013.6 |
| 20260502190054 | 58 | 178 | 3.0 | 7.0 | 0.00 | 0.00 | 0.00 | 80 | 1013.6 |
| 20260502184559 | 58 | 281 | 1.0 | 5.0 | 0.00 | 0.00 | 0.00 | 81 | 1013.7 |
| 20260502183104 | 58 | 261 | 2.0 | 5.0 | 0.00 | 0.00 | 0.00 | 82 | 1013.6 |
| 20260502181601 | 57 | 154 | 2.0 | 5.0 | 0.00 | 0.00 | 0.00 | 83 | 1013.5 |
| 20260502163110 | 54 | 0 | 1.0 | 4.0 | 0.00 | 0.00 | 0.00 | 87 | 1013.6 |
| 20260502161619 | 54 | 293 | 1.0 | 4.0 | 0.00 | 0.00 | 0.00 | 88 | 1013.5 |
| 20260502151556 | 54 | 249 | 0.0 | 2.0 | 0.00 | 0.00 | 0.00 | 88 | 1012.9 |
| 20260502130107 | 53 | 138 | 1.0 | 4.0 | 0.00 | 0.00 | 0.00 | 88 | 1012.1 |
| 20260502123115 | 53 | 230 | 2.0 | 4.0 | 0.00 | 0.00 | 0.00 | 88 | 1012.2 |
| 20260502121557 | 53 | 169 | 1.0 | 6.0 | 0.00 | 0.00 | 0.00 | 88 | 1012.1 |
| 20260502120111 | 53 | 109 | 0.0 | 3.0 | 0.00 | 0.00 | 0.00 | 88 | 1012.1 |
| 20260502114552 | 53 | 194 | 1.0 | 5.0 | 0.00 | 0.00 | 0.00 | 88 | 1012.3 |
| 20260502113058 | 53 | 0 | 2.0 | 7.0 | 0.00 | 0.00 | 0.00 | 88 | 1012.1 |
| 20260502111555 | 53 | 130 | 2.0 | 7.0 | 0.00 | 0.00 | 0.00 | 88 | 1012.0 |
| 20260502110053 | 53 | 179 | 1.0 | 5.0 | 0.00 | 0.00 | 0.00 | 88 | 1012.1 |
| 20260502104555 | 53 | 0 | 1.0 | 6.0 | 0.00 | 0.00 | 0.00 | 88 | 1012.2 |
| 20260502103055 | 53 | 203 | 1.0 | 4.0 | 0.00 | 0.00 | 0.00 | 88 | 1012.3 |
| 20260502101556 | 53 | 153 | 0.0 | 3.0 | 0.00 | 0.00 | 0.00 | 88 | 1012.2 |
| 20260502070107 | 53 | 173 | 1.0 | 7.0 | 0.00 | 0.00 | 0.00 | 89 | 1013.0 |
| 20260502064554 | 53 | 237 | 3.0 | 9.0 | 0.00 | 0.00 | 0.00 | 90 | 1013.0 |
| 20260502063053 | 53 | 194 | 3.0 | 9.0 | 0.00 | 0.00 | 0.00 | 89 | 1013.0 |
| 20260502061553 | 53 | 167 | 3.0 | 10.0 | 0.00 | 0.00 | 0.00 | 89 | 1013.1 |
| 20260502060055 | 54 | 176 | 1.0 | 10.0 | 0.00 | 0.00 | 0.00 | 89 | 1013.1 |
| 20260502054553 | 54 | 171 | 3.0 | 11.0 | 0.00 | 0.00 | 0.00 | 89 | 1013.2 |
| 20260502053100 | 54 | 163 | 4.0 | 9.0 | 0.00 | 0.00 | 0.00 | 89 | 1013.2 |
| 20260502051604 | 54 | 169 | 3.0 | 9.0 | 0.00 | 0.00 | 0.00 | 89 | 1013.3 |
| 20260502050059 | 54 | 133 | 2.0 | 10.0 | 0.00 | 0.00 | 0.00 | 89 | 1013.3 |
| 20260502044616 | 54 | 141 | 2.0 | 7.0 | 0.00 | 0.00 | 0.00 | 89 | 1013.3 |
| 20260502043057 | 54 | 200 | 2.0 | 10.0 | 0.00 | 0.00 | 0.00 | 89 | 1013.0 |
| 20260502041555 | 54 | 246 | 4.0 | 11.0 | 0.00 | 0.00 | 0.00 | 89 | 1013.1 |
| 20260502040104 | 54 | 237 | 3.0 | 9.0 | 0.00 | 0.00 | 0.00 | 88 | 1012.8 |
| 20260502034557 | 55 | 158 | 4.0 | 14.0 | 0.00 | 0.00 | 0.00 | 87 | 1012.7 |
| 20260502033052 | 55 | 155 | 4.0 | 10.0 | 0.00 | 0.00 | 0.00 | 85 | 1012.5 |
| 20260502031616 | 56 | 198 | 2.0 | 10.0 | 0.00 | 0.00 | 0.00 | 85 | 1012.4 |
| 20260502030054 | 57 | 169 | 3.0 | 9.0 | 0.00 | 0.00 | 0.00 | 84 | 1012.3 |
| 20260502024555 | 57 | 190 | 4.0 | 15.0 | 0.00 | 0.00 | 0.00 | 83 | 1012.2 |
| 20260502023055 | 59 | 144 | 3.0 | 10.0 | 0.00 | 0.00 | 0.00 | 81 | 1012.2 |
| 20260502021556 | 60 | 233 | 3.0 | 12.0 | 0.00 | 0.00 | 0.00 | 79 | 1012.2 |
| 20260502020057 | 60 | 188 | 4.0 | 10.0 | 0.00 | 0.00 | 0.00 | 78 | 1012.2 |
| 20260502014554 | 62 | 161 | 6.0 | 13.0 | 0.00 | 0.00 | 0.00 | 76 | 1012.2 |
| 20260502013052 | 62 | 158 | 6.0 | 15.0 | 0.00 | 0.00 | 0.00 | 76 | 1012.2 |
| 20260502011553 | 64 | 194 | 4.0 | 14.0 | 0.00 | 0.00 | 0.00 | 74 | 1012.2 |
| 20260502010055 | 65 | 189 | 3.0 | 10.0 | 0.00 | 0.00 | 0.00 | 72 | 1012.2 |
| 20260502004554 | 65 | 159 | 5.0 | 13.0 | 0.00 | 0.00 | 0.00 | 71 | 1012.4 |
| 20260502003055 | 65 | 186 | 4.0 | 11.0 | 0.00 | 0.00 | 0.00 | 72 | 1012.4 |
| 20260502001601 | 66 | 155 | 4.0 | 11.0 | 0.00 | 0.00 | 0.00 | 71 | 1012.3 |
| 20260502000059 | 67 | 204 | 5.0 | 11.0 | 0.00 | 0.00 | 0.00 | 71 | 1012.3 |
| 20260501234600 | 68 | 159 | 5.0 | 10.0 | 0.00 | 0.00 | 0.00 | 69 | 1012.3 |
| 20260501233058 | 70 | 204 | 2.0 | 9.0 | 0.00 | 0.00 | 0.00 | 66 | 1012.4 |
| 20260501231557 | 69 | 279 | 4.0 | 9.0 | 0.00 | 0.00 | 0.00 | 65 | 1012.4 |
| 20260501230101 | 70 | 228 | 4.0 | 10.0 | 0.00 | 0.00 | 0.00 | 65 | 1012.5 |
| 20260501224553 | 71 | 209 | 3.0 | 10.0 | 0.00 | 0.00 | 0.00 | 66 | 1012.8 |